{"data":{"norad_id":64047,"epoch":"2026-05-24T19:26:14.957376Z","epoch_age_seconds":84618,"freshness":"FRESH","line1":"1 64047U 25102AB  26144.80989534  .00000430  00000+0  43789-4 0  9995","line2":"2 64047  70.0006 282.5487 0002967 267.7555  92.3264 14.98335630 57238","mean_motion":14.9833563,"eccentricity":0.0002967,"inclination_deg":70.0006,"raan_deg":282.5487,"arg_perigee_deg":267.7555,"mean_anomaly_deg":92.3264,"bstar":4.3789e-5,"rev_number":5723,"period_min":96.106638003396,"perigee_km":569.97636362323,"apogee_km":574.10059775347,"semimajor_km":6950.1754806884,"source":"CELESTRAK","updated_at":"2026-05-25T13:38:20.256937Z"}}